Voltar ao catálogo

GHGSAT-C7

AtivoCiênciaSSO
NORAD 56209·PAYLOAD·🇨🇦 Canada

Lançado Apr 15, 2023 de Vandenberg Space Force Base

Loading…

Próximas Passagens (próximas 24 horas)

TLE

AtualizadoSource: Space-Track

Época: Sep 14, 2026, 21:21 UTC

1 56209U 23054AH  26257.88993473  .00010961  00000-0  18632-3 0  9999
2 56209  97.2910 167.4594 0008939  77.9898 282.2356 15.51574615192296

Acompanhe GHGSAT-C7 em tempo real com AllMySat

Download on the App Store